Sigfox identifier Datetime Temperature Humidity SNR
00387255 2018-10-09 08:55:59 20.6 40 17.6
00387255 2018-10-09 07:53:07 20.6 40 17.6
00387255 2018-10-09 06:50:15 20.6 40 17.7
00387255 2018-10-09 05:47:25 20.6 39 17.6
00387255 2018-10-09 04:44:30 20.6 39 17.6
00387255 2018-10-09 01:35:56 20.6 39 17.4
00387255 2018-10-09 00:33:02 20.6 39 17.4
00387255 2018-10-08 23:30:11 20.6 39 17.4
00387255 2018-10-08 22:27:19 20.6 38 17.3
00387255 2018-10-08 21:24:29 20.6 38 17.4
00387255 2018-10-08 20:21:36 20.6 38 17.4
00387255 2018-10-08 19:18:41 20.6 38 17.4
00387255 2018-10-08 18:15:49 20.6 38 17.2
00387255 2018-10-08 17:12:54 20.5 38 17.3
00387255 2018-10-08 15:07:07 20.4 38 11.6
00387255 2018-10-08 14:04:12 20.4 38 11.6
00387255 2018-10-08 13:01:17 20.3 38 11.5
00387255 2018-10-08 09:52:34 20.2 38 11.3
00387255 2018-10-08 08:49:44 20.3 38 11.3
00387255 2018-10-08 06:43:55 20.4 38 11.4
00387255 2018-10-08 05:41:01 20.4 38 11.4
00387255 2018-10-08 04:38:07 20.4 38 11.4
00387255 2018-10-08 03:35:12 20.4 39 11.3
00387255 2018-10-08 02:32:14 20.4 39 11.1
00387255 2018-10-08 01:29:22 20.4 39 10.9
00387255 2018-10-07 23:23:33 20.4 39 10.8
00387255 2018-10-07 22:20:37 20.5 39 10.8
00387255 2018-10-07 21:17:43 20.5 39 10.5
00387255 2018-10-07 20:14:50 20.5 39 10.5
00387255 2018-10-07 19:11:57 20.6 39 10.5
00387255 2018-10-07 18:09:03 20.6 39 10.7
00387255 2018-10-07 17:06:11 20.6 39 10.5
00387255 2018-10-07 16:03:14 20.6 39 10.5
00387255 2018-10-07 15:00:21 20.6 39 17.1
00387255 2018-10-07 13:57:32 20.6 39 17
00387255 2018-10-07 12:54:37 20.6 39 16.9
00387255 2018-10-07 11:51:42 20.6 39 16.9
00387255 2018-10-07 09:45:59 20.6 39 16.9
00387255 2018-10-07 08:43:07 20.6 39 16.9
00387255 2018-10-07 07:40:10 20.7 39 16.8
00387255 2018-10-07 06:37:15 20.6 39 16.8
00387255 2018-10-07 05:34:24 20.6 39 16.8
00387255 2018-10-07 04:31:36 20.7 39 16.9
00387255 2018-10-07 03:28:45 20.7 39 16.9
00387255 2018-10-07 02:25:48 20.7 39 16.8
00387255 2018-10-07 01:23:00 20.8 39 16.8
00387255 2018-10-07 00:20:06 20.8 39 16.9
00387255 2018-10-06 23:17:14 20.8 39 16.8
00387255 2018-10-06 22:14:23 20.8 39 16.8
00387255 2018-10-06 21:11:33 20.8 39 16.9
00387255 2018-10-06 20:08:39 20.8 39 16.9
00387255 2018-10-06 19:05:47 20.9 39 16.9
00387255 2018-10-06 18:02:59 20.8 39 17
00387255 2018-10-06 17:00:02 20.8 40 17.1
00387255 2018-10-06 15:57:11 20.8 40 17.1
00387255 2018-10-06 14:54:21 20.8 40 17
00387255 2018-10-06 13:51:29 20.8 40 17
00387255 2018-10-06 12:48:38 20.9 40 17
00387255 2018-10-06 11:45:46 20.8 40 10.1
00387255 2018-10-06 10:42:48 20.9 40 10.1
00387255 2018-10-06 09:39:58 20.9 40 10.1
00387255 2018-10-06 08:37:03 20.9 40 10.1
00387255 2018-10-06 07:34:12 21 40 10.2
00387255 2018-10-06 06:31:17 21 40 10.3
00387255 2018-10-06 05:28:26 21 40 10.5
00387255 2018-10-06 04:25:28 21 40 10.6
00387255 2018-10-06 03:22:38 21 40 10.7
00387255 2018-10-06 02:19:42 21 40 10.7
00387255 2018-10-06 01:16:50 21 40 10.7
00387255 2018-10-06 00:13:52 21 40 11.1
00387255 2018-10-05 23:10:59 21 40 11.9
00387255 2018-10-05 22:08:06 21 40 12
00387255 2018-10-05 21:05:09 21 40 12.2
00387255 2018-10-05 20:02:15 21.1 40 12.4
00387255 2018-10-05 18:59:19 21.1 40 12.3
00387255 2018-10-05 17:56:26 21 39 12.4
00387255 2018-10-05 15:50:38 21 39 12.4
00387255 2018-10-05 08:30:20 20.6 32 12.1
00387255 2018-10-05 07:27:27 20.6 32 16.2
00387255 2018-10-05 06:24:35 20.6 32 16.4
00387255 2018-10-05 03:15:55 20.6 32 16.5
00387255 2018-10-05 02:13:04 20.7 32 16.7
00387255 2018-10-05 01:10:11 20.7 32 16.9
00387255 2018-10-05 00:07:20 20.8 32 17.1
00387255 2018-10-04 22:01:29 20.8 32 17.3
00387255 2018-10-04 20:58:35 20.8 32 17.5
00387255 2018-10-04 17:49:52 20.6 31 17.7
00387255 2018-10-04 16:47:02 20.6 31 17.8
00387255 2018-10-04 14:41:12 20.6 31 18
00387255 2018-10-04 10:29:36 20.3 33 18.2
00387255 2018-10-04 08:23:51 20.2 34 18.5
00387255 2018-10-04 07:20:56 20.2 36 18.7
00387255 2018-10-04 06:17:58 20.2 37 19
00387255 2018-10-04 05:15:03 20.2 38 19.3
00387255 2018-10-04 03:09:13 20.3 39 19.6
00387255 2018-10-04 01:03:25 20.4 40 19.7
00387255 2018-10-04 00:00:28 20.4 40 20.1
00387255 2018-10-03 22:57:33 20.4 41 20.6
00387255 2018-10-03 21:54:42 20.4 41 21.1
00387255 2018-10-03 20:51:50 20.6 41 21.8
00387255 2018-10-03 19:48:53 20.6 41 22.7
00387255 2018-10-03 18:45:58 20.6 41 23.9
00387255 2018-10-03 17:43:07 20.6 42 25.6
00387255 2018-10-03 16:40:07 20.8 44 17.3
00387255 2018-10-03 14:34:15 20.9 43 0